HAVELSAT (42700 NORAD) Tracking and Keplerian Element Data

This shows tracking and keplerian element data for the satellite.

Feedback or suggestion? Click here.




ElementValue
Catalog42700
NameHAVELSAT
Epoch Orbit8655
Epoch Day323.7244873
Epoch Year2018
RAAN273.243
Inclination51.6274
Eccentricity0.0005703
Argument of Perigee112.5882
Mean Anonmoly247.5724
Mean Motion15.83861967
Decay Rate0.00081318
L11 42700U 98067LH 18323.72448730 .00081318 00000-0 35708-3 0 9992
L22 42700 51.6274 273.2430 0005703 112.5882 247.5724 15.83861967 86552

Live tracking and technical data element details for HAVELSAT (NORAD 42700). HAVELSAT can be tracked NOW for your location showing map with azimuth and elevation plus other details from your city location.

Track the satellite on the map from your city or location and see movement details for azimuth, elevation, latitude, longitude, range, height, and movement on the map or in text.







IsCatalogInMostPopularTable: catalog: 42700, numindb: 148
Update: records affected: 1



GetName: 42700 HAVELSAT

Hit Count: updated at: Wed, 21 Nov 2018 05:51:44 GMT